{"data":{"norad_id":67265,"epoch":"2026-05-24T22:16:58.340064Z","epoch_age_seconds":75031,"freshness":"FRESH","line1":"1 67265U 25313T   26144.92845301  .00008039  00000+0  34473-3 0  9992","line2":"2 67265  97.3935 219.9590 0016159  88.2641 272.0447 15.22885423 22415","mean_motion":15.22885423,"eccentricity":0.0016159,"inclination_deg":97.3935,"raan_deg":219.959,"arg_perigee_deg":88.2641,"mean_anomaly_deg":272.0447,"bstar":0.00034473,"rev_number":2241,"period_min":94.557343464703,"perigee_km":486.03268376839,"apogee_km":508.25221188788,"semimajor_km":6875.2794478281,"source":"CELESTRAK","updated_at":"2026-05-25T13:38:06.848556Z"}}